Hourly Data Report for June 07, 2018

OTTAWA INTL A
ONTARIO
Current Station Operator: NAVCAN

45°19'00.000" N
75°40'00.000" W
114.90 m
6106001
71628
YOW

Download Data

Hourly Data (June 2018)
Hourly Data Report for June 7, 2018
TIME
LST
Temp Definition
°C
Dew Point Definition
°C
Rel Hum Definition
%
Precip. Amount Definition
mm

Wind Dir Definition
10's deg

Wind Spd Definition
km/h
Visibility Definition
km
Stn Press Definition
kPa
Hmdx Definition


Wind Chill Definition


Weather Definition


00:00 12.7 11.4 92   19 9 24.1 100.08     LegendNANA
01:00 12.2 10.9 91   21 9 24.1 100.10     Cloudy
02:00 11.6 10.4 92   19 12 24.1 100.11     LegendNANA
03:00 11.0 9.9 93   19 12 24.1 100.15     LegendNANA
04:00 10.6 9.8 95   18 13 24.1 100.16     Mostly Cloudy
05:00 10.7 9.9 95   20 10 24.1 100.22     LegendNANA
06:00 11.5 10.3 92   20 13 24.1 100.26     LegendNANA
07:00 12.5 10.3 87   21 10 24.1 100.27     Mostly Cloudy
08:00 14.3 10.6 78   20 14 24.1 100.30     LegendNANA
09:00 16.1 11.2 72   21 14 24.1 100.26     LegendNANA
10:00 17.8 11.5 66   23 16 24.1 100.26     Mostly Cloudy
11:00 17.6 11.0 65   23 19 24.1 100.23     LegendNANA
12:00 19.8 11.5 58   22 24 24.1 100.21     LegendNANA
13:00 19.9 11.5 58   22 19 24.1 100.18     Mostly Cloudy
14:00 19.7 11.8 60   22 23 24.1 100.20     LegendNANA
15:00 20.9 11.0 53   21 22 24.1 100.20     LegendNANA
16:00 20.1 12.0 59   22 15 24.1 100.21     Mostly Cloudy
17:00 21.1 12.8 59   20 15 24.1 100.19     LegendNANA
18:00 20.5 12.5 60   19 18 24.1 100.19     LegendNANA
19:00 19.2 12.5 65   19 16 24.1 100.23     Mostly Cloudy
20:00 17.3 12.9 75   19 11 24.1 100.29     LegendNANA
21:00 15.8 12.2 79   22 8 24.1 100.36     LegendNANA
22:00 14.7 12.1 84   20 10 24.1 100.37     Mainly Clear
23:00 14.3 12.3 88   23 9 24.1 100.41     LegendNANA

Notes on Data Quality.

Legend

  • E = Estimated
  • M = Missing
  • NA = Not Available*
  • [empty] = Indicates an unobserved value
Date modified: